Regional Weather Roundup
Issued by NWS Goodland, KS

Home | Current Version | Previous Version | Text Only | Print | Product List | Glossary Off
Versions: 1 2 3 4 5 6 7 8 9 10 11 12 13 14 15 16 17 18 19 20 21 22 23 24 25 26 27 28 29 30 31 32 33 34 35 36 37 38 39 40 41 42 43 44 45 46 47 48 49 50

000
ASUS43 KGLD 260408
RWRGLD

GOODLAND FORECAST AREA HOURLY WEATHER ROUNDUP
NATIONAL WEATHER SERVICE GOODLAND KS
1000 PM MDT SAT APR 25 2015

...OFFICIAL OBSERVATIONS...

CITY           SKY/WX    TMP DP  RH WIND       PRES   REMARKS
GOODLAND KS    CLOUDY    53  51  93 E16       29.78R
HILL CITY KS   CLOUDY    52  48  86 E13       29.82R
IMPERIAL NEB   CLOUDY    52  47  83 E15G23    29.80R
MCCOOK NEB     CLOUDY    51  47  86 E16       29.82R
AKRON CO       CLOUDY    49  44  83 NE14      29.76F
BURLINGTON CO  CLEAR     53  48  83 E16       29.75R
LIMON CO       CLOUDY    54  38  54 SE13      29.76S
$$

...UNOFFICIAL OBSERVATIONS...

CITY           SKY/WX    TMP DP  RH WIND       PRES   REMARKS
COLBY KS       CLOUDY    54  54 100 E17       29.80R
GOVE KS          N/A     53  32  45 MISG        N/A
LENORA KS        N/A     50  32  50 MISG        N/A
NORTON KS      CLOUDY    48  45  87 NE16      29.82R FOG
SHARON SPRINGS   N/A     55  51  88 E14G21      N/A
TRIBUNE KS     CLEAR     59  55  88 E16       29.75R
KIT CARSON CO    N/A     57  44  63 MISG        N/A
YUMA CO          N/A     55  43  64 NW13G22     N/A
$$


USA.gov is the U.S. government's official web portal to all federal, state and local government web resources and services.